STARLINK-37465, 68847

Orbit data source: Space-Track

STARLINK-37465, 68847 is a payload satellite owned by SpaceX/Seattle (US) in SSO that was launched on Sun, 26 Apr 2026 UTC via an FALCON 9 launch vehicle from the Air Force Western Test Range (AFWTR). Payload-class satellites include a variety of spacecraft equipped with specific instruments for various scientific and technological missions. These include communications satellites like Starlink; space stations such as the ISS; scientific satellites like the Hubble; Earth observation satellites from companies like Planet Labs, Umbra, and HawkEye 360; GPS; miniature CubeSats for education and research; and military/defense satellites.

Loading next visibility...
Identifier
68847, 2026-094J
Orbit
SSO
Country
Flag of USUS
Related business
Manufacturer
SpaceX/Seattle
Mission
Operational spacecraft
Bus & Motor
STARLINK V2MO, Unknown motor
Mass
575 kg wet, ~530 kg dry
Launch date (UTC)
2026-04-26 (2 months ago)
Launch vehicle
FALCON 9
Launch site
Air Force Western Test Range (AFWTR)
Object type
Payload
Rocket body
Debris
Shape & HBR
Unknown shape, 14.5 m
Radar Cross Section
Large (>1 m²)

Expand to show TLE details & history
Last TLE update: 21 hours ago

TLE from 21 hours ago
0 STARLINK-37465
1 68847U 26094J   26170.95180224  .00013820  00000-0  42958-3 0  9996
2 68847  97.2836 185.3807 0001646  95.1183 265.0248 15.33446752  8472
Epoch: 2026-06-19T22:50Z
TLE epoch observation values (Epoch: 2026-06-19T22:50:35.713Z)
Latitude
0.00001°
Longitude
-65.44151°
Altitude
468.748 km
Speed
7.632 km/s
True Right ascension
12h 21m 31s
True Declination
0° 00' 00"
Sunlit
Object was in daylight at epoch
Visualization orbit readout
Latitude
Unknown
Longitude
Unknown
Altitude
Unknown
Speed
Unknown
Apparent Right ascension
Unknown
Apparent Declination
Unknown
Sunlit
N/A
Visualization observer readout
Local Sidereal Time
07:14:57
Azimuth
Unknown
Elevation
Unknown
Doppler factor
Unknown
Orbital elements
Apogee altitude
463.607 km
Perigee altitude
461.355 km
Semi-major axis
6,840.618 km
Eccentricity
0.00016
Inclination
97.2836°
RAAN
185.3807°
Arg. of periapsis
95.1183°
True anomaly
265.00601°
Mean anomaly
265.0248°
Eccentric anomaly
265.0154°
Mean motion
3.83619 °/min
Orbital period
93.84 mins
BSTAR
0.00042958
Loading maneuver chart data...
Computing Atmospheric mass density...
Loading historical data...
Loading historical data...
Loading historical data...
Loading historical data...
Loading historical data...
Loading historical data...
Loading historical data...

Documentation

Showing up to 5 results
|